Regional Weather Roundup
Issued by NWS Newport/Morehead, NC

Current Version | Previous Version | Text Only | Print | Product List | Glossary Off
Versions: 1 2 3 4 5 6 7 8 9 10 11 12 13 14 15 16 17 18 19 20 21 22 23 24 25 26 27 28 29 30 31 32 33 34 35 36 37 38 39 40 41 42 43 44 45 46 47 48 49 50
000 ASUS42 KMHX 262025 RWRMHX WEATHER ROUNDUP FOR EASTERN NORTH CAROLINA NATIONAL WEATHER SERVICE NEWPORT/MOREHEAD CITY NC 400 PM EDT THU MAY 26 2016 NOTE: "FAIR" INDICATES FEW OR NO CLOUDS BELOW 12,000 FEET WITH NO SIGNIFICANT WEATHER AND/OR OBSTRUCTIONS TO VISIBILITY NCZ015>017-031-032-045>047-102-103-262100- NORTH COAST CITY SKY/WX TMP DP RH WIND PRES REMARKS EDENTON FAIR 89 55 31 SW6 30.12 ELIZABETH CITY FAIR 87 58 37 S12 30.11S KITTY HAWK FAIR 86 66 50 S10G16 30.12S MANTEO NOT AVBL $$ NCZ045>047-081-094-103-104-262100- CENTRAL COAST CITY SKY/WX TMP DP RH WIND PRES REMARKS FRISCO FAIR 78 68 71 SW12 30.17S $$ NCZ095-097-098-100-101-262100- SOUTHERN COAST CITY SKY/WX TMP DP RH WIND PRES REMARKS BEAUFORT FAIR 78 67 68 S15 30.17S CEDAR ISLAND NOT AVBL JACKSONVILLE FAIR 82 64 54 S13 30.14F PINEY ISLAND NOT AVBL WILMINGTON FAIR 83 63 50 S12 30.15F $$ NCZ011>013-027>030-043-044-078>080-089-090>093-098-262100- COASTAL PLAIN CITY SKY/WX TMP DP RH WIND PRES REMARKS AHOSKIE FAIR 87 59 39 S5 30.10F CLINTON FAIR 86 64 47 SW3 30.12F ELIZABETHTOWN FAIR 86 59 39 S6 30.13F GOLDSBORO FAIR 87 60 40 SW8 30.10F GREENVILLE FAIR 88 63 42 SW7 30.12F HAVELOCK FAIR 82 63 52 S14 30.16F KENANSVILLE FAIR 86 60 40 CALM 30.13F KINSTON FAIR 86 61 42 S7 30.13 NEW BERN PTSUNNY 82 64 54 S13 30.14F RICHLANDS PTSUNNY 86 68 54 S13 30.13F ROCKY MOUNT FAIR 86 60 41 SW5 30.10F WASHINGTON FAIR 87 60 40 W5 30.11F WHITEVILLE FAIR 85 66 52 S6 30.13F $$ AMZ130-135-150-152-154-156-158-170-250-252-270-ANZ085-086-088-633-658-670-262100- MARINE OBSERVATIONS STATION/POSITION TIME TEMP WIND PRES WAVE SWELL AIR SEA DIR/SP/G HT/PER HT/PER (UTC) (F) (DEG/KT/KT) (MB) (FT/S) (FT/S) CHESAPEAKE LIGHT 2000 71 170/ 24/ 25 1019.2 64 E VA BEACH 1950 64 59 190/ 10/ 10 1020.5 2/ 9 2/ 9 DUCK 2000 76 64 150/ 11/ 13 1019.2 2 E DUCK 1911 68 N/A 2/ 8 OREGON INLET 2000 76 76 190/ 18/ 19 1020.7 13E OREGON INLT 2000 66 N/A 2/ 8 2/ 8 HATTERAS CG 2000 76 72 200/ 9/ 12 1021.1 DIAMOND BUOY 1950 75 73 230/ 6/ 8 1021.8 2/ 9 2/ 9 CAPE LOOKOUT 2000 78 200/ 8/ 11 1021.4 BEAUFORT LAB 2000 76 72 200/ 10/ 14 1020.8 30 SE NEW RVR IN 1925 76 N/A 2/ 8 27 SE WRIGHTSVLE 2008 77 75 220/ 6/ 10 1021.3 5 SE WRIGHTSVLE 2008 76 73 200/ 12/ 17 1022.1 225 S CAPE HAT 1950 76 78 60/ 14/ 16 1021.4 3/ 8 2/ 8 41 SE CHARLESTON 1950 77 80 110/ 4/ 6 1021.5 2/ 7 2/ 7 $$

USA.gov is the U.S. government's official web portal to all federal, state and local government web resources and services.